Time,TemperatureF,DewpointF,PressureIn,WindDirection,WindDirectionDegrees,WindSpeedMPH,WindSpeedGustMPH,Humidity,HourlyPrecipIn,Conditions,Clouds,dailyrainin,SoftwareType,DateUTC
2013-02-23 00:00:00,32.2,30.4,29.92,WSW,246,6.0,12.0,93,0.00,,---,0.00,VWS V14.01,2013-02-23 05:00:00,
2013-02-23 00:01:00,32.2,30.4,29.92,SSW,212,5.0,12.0,93,0.00,,---,0.00,VWS V14.01,2013-02-23 05:01:00,
2013-02-23 00:02:00,32.2,30.4,29.92,SW,221,8.0,8.0,93,0.00,,---,0.00,VWS V14.01,2013-02-23 05:02:00,
2013-02-23 00:07:00,32.2,30.4,29.91,SSW,204,8.0,9.0,93,0.00,,---,0.00,VWS V14.01,2013-02-23 05:07:00,
2013-02-23 00:12:00,32.2,30.4,29.91,SSW,207,7.0,10.0,93,0.00,,---,0.00,VWS V14.01,2013-02-23 05:12:00,
2013-02-23 00:17:00,32.2,30.4,29.91,SW,215,8.0,10.0,93,0.00,,---,0.00,VWS V14.01,2013-02-23 05:17:00,
2013-02-23 00:22:00,32.1,30.3,29.91,SW,214,5.0,10.0,93,0.00,,---,0.00,VWS V14.01,2013-02-23 05:22:00,
2013-02-23 00:27:00,32.0,29.9,29.91,SSW,208,6.0,10.0,92,0.00,,---,0.00,VWS V14.01,2013-02-23 05:27:00,
2013-02-23 00:32:00,31.9,29.8,29.91,SSW,211,7.0,12.0,92,0.00,,---,0.00,VWS V14.01,2013-02-23 05:32:00,
2013-02-23 00:37:00,31.8,29.8,29.91,South,181,4.0,12.0,92,0.00,,---,0.00,VWS V14.01,2013-02-23 05:37:00,
2013-02-23 00:43:00,31.7,29.6,29.91,SSW,211,6.0,12.0,92,0.00,,---,0.00,VWS V14.01,2013-02-23 05:43:00,
2013-02-23 00:48:00,31.6,29.5,29.91,SSW,200,5.0,12.0,92,0.00,,---,0.00,VWS V14.01,2013-02-23 05:48:00,
2013-02-23 00:53:00,31.5,29.5,29.91,SW,221,4.0,12.0,92,0.00,,---,0.00,VWS V14.01,2013-02-23 05:53:00,
2013-02-23 00:58:00,31.5,29.5,29.91,SSW,202,6.0,12.0,92,0.00,,---,0.00,VWS V14.01,2013-02-23 05:58:00,
2013-02-23 01:03:00,31.5,29.5,29.91,SSW,200,6.0,8.0,92,0.00,,---,0.00,VWS V14.01,2013-02-23 06:03:00,
2013-02-23 01:08:00,31.5,29.5,29.91,SW,214,4.0,8.0,92,0.00,,---,0.00,VWS V14.01,2013-02-23 06:08:00,
2013-02-23 01:13:00,31.5,29.5,29.91,SSW,207,5.0,8.0,92,0.00,,---,0.00,VWS V14.01,2013-02-23 06:13:00,
2013-02-23 01:18:00,31.5,29.2,29.91,SW,224,6.0,9.0,91,0.00,,---,0.00,VWS V14.01,2013-02-23 06:18:00,
2013-02-23 01:24:00,31.6,29.3,29.91,SSW,204,6.0,10.0,91,0.00,,---,0.00,VWS V14.01,2013-02-23 06:24:00,
2013-02-23 01:29:00,31.6,29.3,29.91,SSW,195,6.0,10.0,91,0.00,,---,0.00,VWS V14.01,2013-02-23 06:29:00,
2013-02-23 01:34:00,31.5,29.2,29.91,SSW,205,6.0,10.0,91,0.00,,---,0.00,VWS V14.01,2013-02-23 06:34:00,
2013-02-23 01:39:00,31.5,29.2,29.90,SW,219,9.0,10.0,91,0.00,,---,0.00,VWS V14.01,2013-02-23 06:39:00,
2013-02-23 01:44:00,31.5,28.9,29.90,SW,226,7.0,10.0,90,0.00,,---,0.00,VWS V14.01,2013-02-23 06:44:00,
2013-02-23 01:49:00,31.6,29.0,29.90,SSW,207,6.0,10.0,90,0.00,,---,0.00,VWS V14.01,2013-02-23 06:49:00,
2013-02-23 01:54:00,31.5,28.6,29.90,SSW,208,6.0,11.0,89,0.00,,---,0.00,VWS V14.01,2013-02-23 06:54:00,
2013-02-23 01:59:00,31.6,28.7,29.90,SW,218,8.0,11.0,89,0.00,,---,0.00,VWS V14.01,2013-02-23 06:59:00,
2013-02-23 02:04:00,31.7,28.3,29.90,SW,223,14.0,15.0,87,0.00,,---,0.00,VWS V14.01,2013-02-23 07:04:00,
2013-02-23 02:09:00,31.8,28.1,29.90,SW,219,10.0,18.0,86,0.00,,---,0.00,VWS V14.01,2013-02-23 07:09:00,
2013-02-23 02:14:00,31.8,27.8,29.90,SW,226,6.0,18.0,85,0.00,,---,0.00,VWS V14.01,2013-02-23 07:14:00,
2013-02-23 02:20:00,31.9,27.6,29.90,WNW,284,7.0,18.0,84,0.00,,---,0.00,VWS V14.01,2013-02-23 07:20:00,
2013-02-23 02:25:00,32.0,27.4,29.90,WSW,238,7.0,18.0,83,0.00,,---,0.00,VWS V14.01,2013-02-23 07:25:00,
2013-02-23 02:30:00,31.9,27.3,29.90,WSW,252,6.0,18.0,83,0.00,,---,0.00,VWS V14.01,2013-02-23 07:30:00,
2013-02-23 02:35:00,31.8,27.2,29.90,SW,231,6.0,18.0,83,0.00,,---,0.00,VWS V14.01,2013-02-23 07:35:00,
2013-02-23 02:40:00,31.8,27.2,29.90,SW,228,7.0,18.0,83,0.00,,---,0.00,VWS V14.01,2013-02-23 07:40:00,
2013-02-23 02:45:00,31.7,27.1,29.90,WSW,238,4.0,18.0,83,0.00,,---,0.00,VWS V14.01,2013-02-23 07:45:00,
2013-02-23 02:50:00,31.6,27.3,29.90,SW,225,7.0,18.0,84,0.00,,---,0.00,VWS V14.01,2013-02-23 07:50:00,
2013-02-23 02:55:00,31.6,27.3,29.90,SW,225,6.0,18.0,84,0.00,,---,0.00,VWS V14.01,2013-02-23 07:55:00,
2013-02-23 03:00:00,31.5,26.9,29.90,SW,224,7.0,18.0,83,0.00,,---,0.00,VWS V14.01,2013-02-23 08:00:00,
2013-02-23 03:06:00,31.5,26.9,29.90,WSW,246,6.0,11.0,83,0.00,,---,0.00,VWS V14.01,2013-02-23 08:06:00,
2013-02-23 03:11:00,31.4,26.8,29.90,WSW,253,10.0,11.0,83,0.00,,---,0.00,VWS V14.01,2013-02-23 08:11:00,
2013-02-23 03:16:00,31.3,26.5,29.90,SW,218,10.0,14.0,82,0.00,,---,0.00,VWS V14.01,2013-02-23 08:16:00,
2013-02-23 03:21:00,31.2,26.4,29.90,West,259,12.0,14.0,82,0.00,,---,0.00,VWS V14.01,2013-02-23 08:21:00,
2013-02-23 03:26:00,31.0,26.2,29.90,SW,231,7.0,15.0,82,0.00,,---,0.00,VWS V14.01,2013-02-23 08:26:00,
2013-02-23 03:31:00,30.9,25.8,29.90,WSW,252,5.0,16.0,81,0.00,,---,0.00,VWS V14.01,2013-02-23 08:31:00,
2013-02-23 03:36:00,30.8,25.7,29.90,SW,233,6.0,16.0,81,0.00,,---,0.00,VWS V14.01,2013-02-23 08:36:00,
2013-02-23 03:41:00,30.6,25.8,29.90,WSW,238,5.0,16.0,82,0.00,,---,0.00,VWS V14.01,2013-02-23 08:41:00,
2013-02-23 03:46:00,30.6,25.5,29.90,SW,228,8.0,16.0,81,0.00,,---,0.00,VWS V14.01,2013-02-23 08:46:00,
2013-02-23 03:51:00,30.5,25.4,29.89,WSW,253,7.0,16.0,81,0.00,,---,0.00,VWS V14.01,2013-02-23 08:51:00,
2013-02-23 03:56:00,30.4,25.6,29.89,SW,236,10.0,16.0,82,0.00,,---,0.00,VWS V14.01,2013-02-23 08:56:00,
2013-02-23 04:02:00,30.3,25.5,29.89,SW,231,7.0,9.0,82,0.00,,---,0.00,VWS V14.01,2013-02-23 09:02:00,
2013-02-23 04:07:00,30.2,25.4,29.89,WSW,250,11.0,16.0,82,0.00,,---,0.00,VWS V14.01,2013-02-23 09:07:00,
2013-02-23 04:12:00,30.0,25.5,29.90,WSW,240,14.0,17.0,83,0.00,,---,0.00,VWS V14.01,2013-02-23 09:12:00,
2013-02-23 04:17:00,29.9,25.4,29.90,WSW,245,10.0,17.0,83,0.00,,---,0.00,VWS V14.01,2013-02-23 09:17:00,
2013-02-23 04:22:00,29.8,25.3,29.90,WSW,257,8.0,17.0,83,0.00,,---,0.00,VWS V14.01,2013-02-23 09:22:00,
2013-02-23 04:27:00,29.7,24.9,29.90,WSW,238,6.0,17.0,82,0.00,,---,0.00,VWS V14.01,2013-02-23 09:27:00,
2013-02-23 04:32:00,29.6,24.5,29.89,WSW,238,12.0,17.0,81,0.00,,---,0.00,VWS V14.01,2013-02-23 09:32:00,
2013-02-23 04:37:00,29.5,24.1,29.90,WSW,238,11.0,17.0,80,0.00,,---,0.00,VWS V14.01,2013-02-23 09:37:00,
2013-02-23 04:42:00,29.5,24.1,29.89,SW,231,8.0,17.0,80,0.00,,---,0.00,VWS V14.01,2013-02-23 09:42:00,
2013-02-23 04:47:00,29.4,23.7,29.90,WSW,248,11.0,17.0,79,0.00,,---,0.00,VWS V14.01,2013-02-23 09:47:00,
2013-02-23 04:53:00,29.4,23.4,29.90,SW,231,9.0,17.0,78,0.00,,---,0.00,VWS V14.01,2013-02-23 09:53:00,
2013-02-23 04:58:00,29.3,23.3,29.90,WSW,237,5.0,17.0,78,0.00,,---,0.00,VWS V14.01,2013-02-23 09:58:00,
2013-02-23 05:03:00,29.3,23.3,29.90,SW,229,9.0,9.0,78,0.00,,---,0.00,VWS V14.01,2013-02-23 10:03:00,
2013-02-23 05:08:00,29.2,23.2,29.90,WSW,257,7.0,13.0,78,0.00,,---,0.00,VWS V14.01,2013-02-23 10:08:00,
2013-02-23 05:13:00,29.2,23.2,29.90,SW,222,8.0,13.0,78,0.00,,---,0.00,VWS V14.01,2013-02-23 10:13:00,
2013-02-23 05:18:00,29.1,22.8,29.90,West,263,5.0,13.0,77,0.00,,---,0.00,VWS V14.01,2013-02-23 10:18:00,
2013-02-23 05:23:00,29.0,22.7,29.90,SW,218,7.0,14.0,77,0.00,,---,0.00,VWS V14.01,2013-02-23 10:23:00,
2013-02-23 05:28:00,29.0,22.7,29.90,SW,229,6.0,14.0,77,0.00,,---,0.00,VWS V14.01,2013-02-23 10:28:00,
2013-02-23 05:34:00,28.9,22.6,29.90,SW,229,3.0,14.0,77,0.00,,---,0.00,VWS V14.01,2013-02-23 10:34:00,
2013-02-23 05:39:00,28.9,22.6,29.90,WSW,248,8.0,14.0,77,0.00,,---,0.00,VWS V14.01,2013-02-23 10:39:00,
2013-02-23 05:44:00,28.8,22.5,29.90,WSW,243,4.0,14.0,77,0.00,,---,0.00,VWS V14.01,2013-02-23 10:44:00,
2013-02-23 05:49:00,28.7,22.4,29.90,WSW,250,9.0,14.0,77,0.00,,---,0.00,VWS V14.01,2013-02-23 10:49:00,
2013-02-23 05:54:00,28.7,22.1,29.90,SW,226,7.0,14.0,76,0.00,,---,0.00,VWS V14.01,2013-02-23 10:54:00,
2013-02-23 05:59:00,28.7,22.1,29.90,WSW,246,8.0,14.0,76,0.00,,---,0.00,VWS V14.01,2013-02-23 10:59:00,
2013-02-23 06:04:00,28.7,22.1,29.90,WSW,245,8.0,12.0,76,0.00,,---,0.00,VWS V14.01,2013-02-23 11:04:00,
2013-02-23 06:10:00,28.6,22.0,29.90,WSW,240,7.0,12.0,76,0.00,,---,0.00,VWS V14.01,2013-02-23 11:10:00,
2013-02-23 06:15:00,28.6,22.3,29.90,SSW,211,4.0,12.0,77,0.00,,---,0.00,VWS V14.01,2013-02-23 11:15:00,
2013-02-23 06:20:00,28.5,22.2,29.90,WSW,242,9.0,15.0,77,0.00,,---,0.00,VWS V14.01,2013-02-23 11:20:00,
2013-02-23 06:25:00,28.5,22.2,29.90,WSW,252,4.0,15.0,77,0.00,,---,0.00,VWS V14.01,2013-02-23 11:25:00,
2013-02-23 06:30:00,28.4,22.1,29.90,SW,231,10.0,15.0,77,0.00,,---,0.00,VWS V14.01,2013-02-23 11:30:00,
2013-02-23 06:35:00,28.4,22.1,29.90,SW,235,9.0,15.0,77,0.00,,---,0.00,VWS V14.01,2013-02-23 11:35:00,
2013-02-23 06:40:00,28.3,22.3,29.90,WSW,243,7.0,15.0,78,0.00,,---,0.00,VWS V14.01,2013-02-23 11:40:00,
2013-02-23 06:45:00,28.3,22.3,29.90,West,260,5.0,15.0,78,0.00,,---,0.00,VWS V14.01,2013-02-23 11:45:00,
2013-02-23 06:50:00,28.2,22.2,29.90,SW,231,9.0,15.0,78,0.00,,---,0.00,VWS V14.01,2013-02-23 11:50:00,
2013-02-23 06:56:00,28.2,22.5,29.90,SW,233,8.0,15.0,79,0.00,,---,0.00,VWS V14.01,2013-02-23 11:56:00,
2013-02-23 07:01:00,28.2,22.5,29.90,SW,229,7.0,15.0,79,0.00,,---,0.00,VWS V14.01,2013-02-23 12:01:00,
2013-02-23 07:06:00,28.1,22.4,29.91,WSW,239,7.0,10.0,79,0.00,,---,0.00,VWS V14.01,2013-02-23 12:06:00,
2013-02-23 07:11:00,28.1,22.4,29.91,SW,233,6.0,11.0,79,0.00,,---,0.00,VWS V14.01,2013-02-23 12:11:00,
2013-02-23 07:16:00,28.1,22.4,29.91,WSW,240,6.0,12.0,79,0.00,,---,0.00,VWS V14.01,2013-02-23 12:16:00,
2013-02-23 07:21:00,28.1,22.7,29.91,SSW,212,12.0,16.0,80,0.00,,---,0.00,VWS V14.01,2013-02-23 12:21:00,
2013-02-23 07:26:00,28.0,22.6,29.91,SW,222,4.0,16.0,80,0.00,,---,0.00,VWS V14.01,2013-02-23 12:26:00,
2013-02-23 07:31:00,28.0,22.6,29.91,SW,228,7.0,16.0,80,0.00,,---,0.00,VWS V14.01,2013-02-23 12:31:00,
2013-02-23 07:36:00,28.0,22.6,29.91,WSW,238,6.0,16.0,80,0.00,,---,0.00,VWS V14.01,2013-02-23 12:36:00,
2013-02-23 07:42:00,28.0,22.6,29.91,WSW,239,7.0,16.0,80,0.00,,---,0.00,VWS V14.01,2013-02-23 12:42:00,
2013-02-23 07:47:00,28.0,22.6,29.91,WSW,242,9.0,16.0,80,0.00,,---,0.00,VWS V14.01,2013-02-23 12:47:00,
2013-02-23 07:52:00,28.0,22.6,29.92,WSW,250,10.0,16.0,80,0.00,,---,0.00,VWS V14.01,2013-02-23 12:52:00,
2013-02-23 07:57:00,28.0,22.9,29.91,WSW,257,7.0,16.0,81,0.00,,---,0.00,VWS V14.01,2013-02-23 12:57:00,
2013-02-23 08:02:00,27.9,22.8,29.91,SW,218,7.0,7.0,81,0.00,,---,0.00,VWS V14.01,2013-02-23 13:02:00,
2013-02-23 08:07:00,27.9,22.8,29.91,SW,217,9.0,14.0,81,0.00,,---,0.00,VWS V14.01,2013-02-23 13:07:00,
2013-02-23 08:12:00,27.9,22.8,29.91,SW,231,8.0,14.0,81,0.00,,---,0.00,VWS V14.01,2013-02-23 13:12:00,
2013-02-23 08:17:00,27.8,22.7,29.91,SW,233,9.0,14.0,81,0.00,,---,0.00,VWS V14.01,2013-02-23 13:17:00,
2013-02-23 08:22:00,27.8,22.7,29.91,WSW,240,11.0,15.0,81,0.00,,---,0.00,VWS V14.01,2013-02-23 13:22:00,
2013-02-23 08:28:00,28.0,23.2,29.91,SW,214,6.0,15.0,82,0.00,,---,0.00,VWS V14.01,2013-02-23 13:28:00,
2013-02-23 08:33:00,28.2,23.1,29.91,SW,233,10.0,15.0,81,0.00,,---,0.00,VWS V14.01,2013-02-23 13:33:00,
2013-02-23 08:38:00,28.3,23.5,29.91,SSW,198,7.0,15.0,82,0.00,,---,0.00,VWS V14.01,2013-02-23 13:38:00,
2013-02-23 08:43:00,28.2,23.4,29.91,West,259,13.0,16.0,82,0.00,,---,0.00,VWS V14.01,2013-02-23 13:43:00,
2013-02-23 08:48:00,28.1,23.3,29.91,West,262,8.0,16.0,82,0.00,,---,0.00,VWS V14.01,2013-02-23 13:48:00,
2013-02-23 08:53:00,28.1,23.6,29.91,WSW,238,5.0,16.0,83,0.00,,---,0.00,VWS V14.01,2013-02-23 13:53:00,
2013-02-23 08:58:00,28.1,23.6,29.91,SW,219,5.0,16.0,83,0.00,,---,0.00,VWS V14.01,2013-02-23 13:58:00,
2013-02-23 09:03:00,28.2,23.7,29.91,WSW,253,5.0,10.0,83,0.00,,---,0.00,VWS V14.01,2013-02-23 14:03:00,
2013-02-23 09:09:00,28.3,23.8,29.91,SW,229,14.0,17.0,83,0.00,,---,0.00,VWS V14.01,2013-02-23 14:09:00,
2013-02-23 09:14:00,28.4,23.9,29.91,WSW,256,6.0,17.0,83,0.00,,---,0.00,VWS V14.01,2013-02-23 14:14:00,
2013-02-23 09:19:00,28.5,24.0,29.91,SW,219,10.0,17.0,83,0.00,,---,0.00,VWS V14.01,2013-02-23 14:19:00,
2013-02-23 09:24:00,28.6,24.1,29.91,WSW,250,12.0,17.0,83,0.00,,---,0.00,VWS V14.01,2013-02-23 14:24:00,
2013-02-23 09:29:00,28.7,23.9,29.91,SW,219,8.0,17.0,82,0.00,,---,0.00,VWS V14.01,2013-02-23 14:29:00,
2013-02-23 09:34:00,28.9,24.1,29.90,SSW,209,9.0,17.0,82,0.00,,---,0.00,VWS V14.01,2013-02-23 14:34:00,
2013-02-23 09:39:00,29.2,24.4,29.90,SW,229,8.0,17.0,82,0.00,,---,0.00,VWS V14.01,2013-02-23 14:39:00,
2013-02-23 09:44:00,29.2,24.1,29.90,SW,236,7.0,17.0,81,0.00,,---,0.00,VWS V14.01,2013-02-23 14:44:00,
2013-02-23 09:50:00,29.5,24.4,29.90,WSW,246,9.0,17.0,81,0.00,,---,0.00,VWS V14.01,2013-02-23 14:50:00,
2013-02-23 09:55:00,29.8,24.1,29.90,SW,218,10.0,17.0,79,0.00,,---,0.00,VWS V14.01,2013-02-23 14:55:00,
2013-02-23 10:00:00,29.8,24.1,29.90,SW,217,8.0,17.0,79,0.00,,---,0.00,VWS V14.01,2013-02-23 15:00:00,
2013-02-23 10:05:00,29.8,24.1,29.90,WSW,239,12.0,14.0,79,0.00,,---,0.00,VWS V14.01,2013-02-23 15:05:00,
2013-02-23 10:10:00,29.8,24.1,29.90,SSW,210,14.0,20.0,79,0.00,,---,0.00,VWS V14.01,2013-02-23 15:10:00,
2013-02-23 10:15:00,29.7,24.0,29.90,SW,224,8.0,20.0,79,0.00,,---,0.00,VWS V14.01,2013-02-23 15:15:00,
2013-02-23 10:20:00,29.8,24.1,29.90,West,262,8.0,20.0,79,0.00,,---,0.00,VWS V14.01,2013-02-23 15:20:00,
2013-02-23 10:25:00,29.8,23.8,29.90,SSW,208,9.0,20.0,78,0.00,,---,0.00,VWS V14.01,2013-02-23 15:25:00,
2013-02-23 10:31:00,30.0,24.3,29.90,SW,231,7.0,20.0,79,0.00,,---,0.00,VWS V14.01,2013-02-23 15:31:00,
2013-02-23 10:36:00,30.1,24.1,29.90,SW,222,9.0,20.0,78,0.00,,---,0.00,VWS V14.01,2013-02-23 15:36:00,
2013-02-23 10:41:00,30.1,23.8,29.90,WSW,257,7.0,20.0,77,0.00,,---,0.00,VWS V14.01,2013-02-23 15:41:00,
2013-02-23 10:46:00,30.2,23.9,29.90,SW,226,9.0,20.0,77,0.00,,---,0.00,VWS V14.01,2013-02-23 15:46:00,
2013-02-23 10:51:00,30.5,24.2,29.90,WSW,238,5.0,20.0,77,0.00,,---,0.00,VWS V14.01,2013-02-23 15:51:00,
2013-02-23 10:56:00,30.7,24.0,29.90,SW,233,11.0,20.0,76,0.00,,---,0.00,VWS V14.01,2013-02-23 15:56:00,
2013-02-23 11:01:00,30.8,23.8,29.90,SW,225,10.0,20.0,75,0.00,,---,0.00,VWS V14.01,2013-02-23 16:01:00,
2013-02-23 11:06:00,30.7,23.4,29.90,SW,226,13.0,16.0,74,0.00,,---,0.00,VWS V14.01,2013-02-23 16:06:00,
2013-02-23 11:11:00,30.6,23.6,29.90,WSW,257,7.0,16.0,75,0.00,,---,0.00,VWS V14.01,2013-02-23 16:11:00,
2013-02-23 11:17:00,30.6,23.3,29.90,WSW,242,9.0,16.0,74,0.00,,---,0.00,VWS V14.01,2013-02-23 16:17:00,
2013-02-23 11:22:00,30.4,23.1,29.90,WSW,246,8.0,16.0,74,0.00,,---,0.00,VWS V14.01,2013-02-23 16:22:00,
2013-02-23 11:27:00,30.3,23.3,29.90,West,278,7.0,16.0,75,0.00,,---,0.00,VWS V14.01,2013-02-23 16:27:00,
2013-02-23 11:32:00,30.1,23.1,29.90,West,277,6.0,16.0,75,0.00,,---,0.00,VWS V14.01,2013-02-23 16:32:00,
2013-02-23 11:37:00,30.1,22.8,29.90,WSW,258,12.0,16.0,74,0.00,,---,0.00,VWS V14.01,2013-02-23 16:37:00,
2013-02-23 11:42:00,30.2,23.2,29.90,West,278,6.0,16.0,75,0.00,,---,0.00,VWS V14.01,2013-02-23 16:42:00,
2013-02-23 11:47:00,30.2,23.2,29.91,SW,225,13.0,16.0,75,0.00,,---,0.00,VWS V14.01,2013-02-23 16:47:00,
2013-02-23 11:52:00,30.3,23.0,29.91,WSW,258,9.0,16.0,74,0.00,,---,0.00,VWS V14.01,2013-02-23 16:52:00,
2013-02-23 11:57:00,30.3,23.0,29.90,SW,233,11.0,16.0,74,0.00,,---,0.00,VWS V14.01,2013-02-23 16:57:00,
2013-02-23 12:02:00,30.4,23.1,29.91,WSW,248,7.0,10.0,74,0.00,,---,0.00,VWS V14.01,2013-02-23 17:02:00,
2013-02-23 12:08:00,30.7,23.1,29.91,WSW,248,7.0,11.0,73,0.00,,---,0.00,VWS V14.01,2013-02-23 17:08:00,
2013-02-23 12:13:00,30.8,23.2,29.90,WSW,238,8.0,11.0,73,0.00,,---,0.00,VWS V14.01,2013-02-23 17:13:00,
2013-02-23 12:18:00,30.9,23.3,29.90,WSW,245,6.0,11.0,73,0.00,,---,0.00,VWS V14.01,2013-02-23 17:18:00,
2013-02-23 12:23:00,30.8,22.9,29.90,West,271,5.0,11.0,72,0.00,,---,0.00,VWS V14.01,2013-02-23 17:23:00,
2013-02-23 12:28:00,30.9,22.6,29.90,WSW,239,9.0,11.0,71,0.00,,---,0.00,VWS V14.01,2013-02-23 17:28:00,
2013-02-23 12:33:00,30.8,22.9,29.90,WSW,253,5.0,11.0,72,0.00,,---,0.00,VWS V14.01,2013-02-23 17:33:00,
2013-02-23 12:38:00,30.6,22.7,29.90,West,271,8.0,11.0,72,0.00,,---,0.00,VWS V14.01,2013-02-23 17:38:00,
2013-02-23 12:43:00,30.8,22.9,29.90,West,263,4.0,12.0,72,0.00,,---,0.00,VWS V14.01,2013-02-23 17:43:00,
2013-02-23 12:49:00,31.3,22.7,29.89,West,280,6.0,12.0,70,0.00,,---,0.00,VWS V14.01,2013-02-23 17:49:00,
2013-02-23 12:54:00,31.3,22.0,29.90,WSW,255,8.0,12.0,68,0.00,,---,0.00,VWS V14.01,2013-02-23 17:54:00,
2013-02-23 12:59:00,31.3,22.0,29.90,SW,229,9.0,12.0,68,0.00,,---,0.00,VWS V14.01,2013-02-23 17:59:00,
2013-02-23 13:04:00,31.4,21.7,29.90,SW,219,11.0,12.0,67,0.00,,---,0.00,VWS V14.01,2013-02-23 18:04:00,
2013-02-23 13:09:00,31.3,21.6,29.90,WSW,238,13.0,13.0,67,0.00,,---,0.00,VWS V14.01,2013-02-23 18:09:00,
2013-02-23 13:14:00,31.2,21.9,29.90,WSW,242,13.0,15.0,68,0.00,,---,0.00,VWS V14.01,2013-02-23 18:14:00,
2013-02-23 13:19:00,31.1,21.4,29.89,West,259,7.0,15.0,67,0.00,,---,0.00,VWS V14.01,2013-02-23 18:19:00,
2013-02-23 13:24:00,31.2,21.9,29.90,SW,224,9.0,15.0,68,0.00,,---,0.00,VWS V14.01,2013-02-23 18:24:00,
2013-02-23 13:30:00,31.2,21.5,29.89,SW,233,8.0,15.0,67,0.00,,---,0.00,VWS V14.01,2013-02-23 18:30:00,
2013-02-23 13:35:00,31.1,21.4,29.89,West,269,6.0,15.0,67,0.00,,---,0.00,VWS V14.01,2013-02-23 18:35:00,
2013-02-23 13:40:00,31.1,21.4,29.89,WSW,245,9.0,15.0,67,0.00,,---,0.00,VWS V14.01,2013-02-23 18:40:00,
2013-02-23 13:45:00,31.1,21.8,29.89,WSW,245,6.0,15.0,68,0.00,,---,0.00,VWS V14.01,2013-02-23 18:45:00,
2013-02-23 13:50:00,31.0,21.3,29.88,WNW,284,5.0,15.0,67,0.00,,---,0.00,VWS V14.01,2013-02-23 18:50:00,
2013-02-23 13:55:00,31.0,22.0,29.88,West,281,5.0,15.0,69,0.00,,---,0.00,VWS V14.01,2013-02-23 18:55:00,
2013-02-23 14:00:00,30.9,21.9,29.88,West,278,5.0,15.0,69,0.00,,---,0.00,VWS V14.01,2013-02-23 19:00:00,
2013-02-23 14:05:00,30.9,21.6,29.88,SW,225,6.0,11.0,68,0.00,,---,0.00,VWS V14.01,2013-02-23 19:05:00,
2013-02-23 14:10:00,30.8,21.5,29.88,WSW,239,9.0,13.0,68,0.00,,---,0.00,VWS V14.01,2013-02-23 19:10:00,
2013-02-23 14:15:00,30.7,21.8,29.88,West,264,5.0,13.0,69,0.00,,---,0.00,VWS V14.01,2013-02-23 19:15:00,
2013-02-23 14:20:00,30.6,21.3,29.88,WSW,256,6.0,13.0,68,0.00,,---,0.00,VWS V14.01,2013-02-23 19:20:00,
2013-02-23 14:26:00,30.5,21.6,29.88,WSW,257,8.0,13.0,69,0.00,,---,0.00,VWS V14.01,2013-02-23 19:26:00,
2013-02-23 14:31:00,30.4,21.5,29.89,WSW,245,10.0,14.0,69,0.00,,---,0.00,VWS V14.01,2013-02-23 19:31:00,
2013-02-23 14:36:00,30.3,21.4,29.89,West,278,10.0,14.0,69,0.00,,---,0.00,VWS V14.01,2013-02-23 19:36:00,
2013-02-23 14:41:00,30.2,21.6,29.89,West,262,5.0,14.0,70,0.00,,---,0.00,VWS V14.01,2013-02-23 19:41:00,
2013-02-23 14:46:00,30.2,21.6,29.89,West,263,6.0,14.0,70,0.00,,---,0.00,VWS V14.01,2013-02-23 19:46:00,
2013-02-23 14:51:00,30.2,21.6,29.89,West,260,6.0,14.0,70,0.00,,---,0.00,VWS V14.01,2013-02-23 19:51:00,
2013-02-23 14:56:00,30.3,21.7,29.89,WSW,255,4.0,14.0,70,0.00,,---,0.00,VWS V14.01,2013-02-23 19:56:00,
2013-02-23 15:02:00,30.4,21.1,29.89,WSW,245,7.0,8.0,68,0.00,,---,0.00,VWS V14.01,2013-02-23 20:02:00,
2013-02-23 15:07:00,30.4,20.8,29.88,SW,233,6.0,10.0,67,0.00,,---,0.00,VWS V14.01,2013-02-23 20:07:00,
2013-02-23 15:12:00,30.4,20.8,29.88,WSW,238,10.0,11.0,67,0.00,,---,0.00,VWS V14.01,2013-02-23 20:12:00,
2013-02-23 15:17:00,30.4,20.8,29.88,WSW,256,7.0,11.0,67,0.00,,---,0.00,VWS V14.01,2013-02-23 20:17:00,
2013-02-23 15:22:00,30.4,21.1,29.88,WSW,238,8.0,11.0,68,0.00,,---,0.00,VWS V14.01,2013-02-23 20:22:00,
2013-02-23 15:27:00,30.3,21.0,29.88,WSW,253,6.0,11.0,68,0.00,,---,0.00,VWS V14.01,2013-02-23 20:27:00,
2013-02-23 15:32:00,30.3,21.0,29.88,WSW,243,3.0,11.0,68,0.00,,---,0.00,VWS V14.01,2013-02-23 20:32:00,
2013-02-23 15:37:00,30.3,21.0,29.88,WSW,238,6.0,11.0,68,0.00,,---,0.00,VWS V14.01,2013-02-23 20:37:00,
2013-02-23 15:42:00,30.3,21.0,29.89,West,268,6.0,11.0,68,0.00,,---,0.00,VWS V14.01,2013-02-23 20:42:00,
2013-02-23 15:48:00,30.2,20.2,29.89,West,263,7.0,12.0,66,0.00,,---,0.00,VWS V14.01,2013-02-23 20:48:00,
2013-02-23 15:53:00,30.2,20.9,29.89,West,274,5.0,12.0,68,0.00,,---,0.00,VWS V14.01,2013-02-23 20:53:00,
2013-02-23 15:58:00,30.1,20.5,29.89,West,279,8.0,13.0,67,0.00,,---,0.00,VWS V14.01,2013-02-23 20:58:00,
2013-02-23 16:03:00,30.0,20.4,29.89,WSW,245,11.0,12.0,67,0.00,,---,0.00,VWS V14.01,2013-02-23 21:03:00,
2013-02-23 16:08:00,30.0,20.0,29.89,West,263,9.0,12.0,66,0.00,,---,0.00,VWS V14.01,2013-02-23 21:08:00,
2013-02-23 16:13:00,30.0,20.0,29.89,West,276,7.0,12.0,66,0.00,,---,0.00,VWS V14.01,2013-02-23 21:13:00,
2013-02-23 16:18:00,29.9,20.6,29.89,WSW,257,8.0,12.0,68,0.00,,---,0.00,VWS V14.01,2013-02-23 21:18:00,
2013-02-23 16:23:00,30.0,20.7,29.89,West,266,7.0,12.0,68,0.00,,---,0.00,VWS V14.01,2013-02-23 21:23:00,
2013-02-23 16:29:00,30.0,21.1,29.89,West,280,4.0,12.0,69,0.00,,---,0.00,VWS V14.01,2013-02-23 21:29:00,
2013-02-23 16:34:00,30.1,21.2,29.89,WNW,282,5.0,12.0,69,0.00,,---,0.00,VWS V14.01,2013-02-23 21:34:00,
2013-02-23 16:39:00,30.0,21.1,29.89,West,277,4.0,12.0,69,0.00,,---,0.00,VWS V14.01,2013-02-23 21:39:00,
2013-02-23 16:44:00,29.9,21.0,29.89,WSW,252,6.0,12.0,69,0.00,,---,0.00,VWS V14.01,2013-02-23 21:44:00,
2013-02-23 16:49:00,29.9,21.0,29.89,WSW,256,4.0,12.0,69,0.00,,---,0.00,VWS V14.01,2013-02-23 21:49:00,
2013-02-23 16:54:00,29.9,21.3,29.89,West,262,7.0,12.0,70,0.00,,---,0.00,VWS V14.01,2013-02-23 21:54:00,
2013-02-23 16:59:00,29.8,20.9,29.90,West,269,7.0,12.0,69,0.00,,---,0.00,VWS V14.01,2013-02-23 21:59:00,
2013-02-23 17:04:00,29.6,21.0,29.90,WSW,257,5.0,9.0,70,0.00,,---,0.00,VWS V14.01,2013-02-23 22:04:00,
2013-02-23 17:09:00,29.4,21.2,29.90,West,276,6.0,9.0,71,0.00,,---,0.00,VWS V14.01,2013-02-23 22:09:00,
2013-02-23 17:15:00,29.3,21.1,29.90,West,270,6.0,10.0,71,0.00,,---,0.00,VWS V14.01,2013-02-23 22:15:00,
2013-02-23 17:20:00,29.2,21.3,29.90,WSW,240,8.0,10.0,72,0.00,,---,0.00,VWS V14.01,2013-02-23 22:20:00,
2013-02-23 17:25:00,29.1,21.2,29.90,West,262,7.0,10.0,72,0.00,,---,0.00,VWS V14.01,2013-02-23 22:25:00,
2013-02-23 17:30:00,29.1,20.9,29.90,WSW,242,3.0,10.0,71,0.00,,---,0.00,VWS V14.01,2013-02-23 22:30:00,
2013-02-23 17:35:00,29.0,21.1,29.90,WSW,243,5.0,10.0,72,0.00,,---,0.00,VWS V14.01,2013-02-23 22:35:00,
2013-02-23 17:40:00,28.9,21.0,29.90,SW,214,4.0,10.0,72,0.00,,---,0.00,VWS V14.01,2013-02-23 22:40:00,
2013-02-23 17:45:00,28.9,21.0,29.90,WSW,248,6.0,10.0,72,0.00,,---,0.00,VWS V14.01,2013-02-23 22:45:00,
2013-02-23 17:50:00,28.8,21.2,29.91,SW,236,5.0,10.0,73,0.00,,---,0.00,VWS V14.01,2013-02-23 22:50:00,
2013-02-23 17:56:00,28.8,21.2,29.91,WSW,252,5.0,10.0,73,0.00,,---,0.00,VWS V14.01,2013-02-23 22:56:00,
2013-02-23 18:01:00,28.8,21.2,29.91,West,260,3.0,10.0,73,0.00,,---,0.00,VWS V14.01,2013-02-23 23:01:00,
2013-02-23 18:06:00,28.7,21.1,29.91,WSW,252,7.0,9.0,73,0.00,,---,0.00,VWS V14.01,2013-02-23 23:06:00,
2013-02-23 18:11:00,28.6,21.1,29.91,SW,233,9.0,11.0,73,0.00,,---,0.00,VWS V14.01,2013-02-23 23:11:00,
2013-02-23 18:16:00,28.6,21.1,29.91,West,268,6.0,11.0,73,0.00,,---,0.00,VWS V14.01,2013-02-23 23:16:00,
2013-02-23 18:21:00,28.5,21.3,29.92,West,270,4.0,11.0,74,0.00,,---,0.00,VWS V14.01,2013-02-23 23:21:00,
2013-02-23 18:26:00,28.4,21.2,29.92,West,276,9.0,11.0,74,0.00,,---,0.00,VWS V14.01,2013-02-23 23:26:00,
2013-02-23 18:31:00,28.2,21.3,29.92,West,264,7.0,11.0,75,0.00,,---,0.00,VWS V14.01,2013-02-23 23:31:00,
2013-02-23 18:37:00,28.0,21.7,29.92,WSW,252,7.0,11.0,77,0.00,,---,0.00,VWS V14.01,2013-02-23 23:37:00,
2013-02-23 18:42:00,27.8,21.9,29.92,WSW,253,3.0,11.0,78,0.00,,---,0.00,VWS V14.01,2013-02-23 23:42:00,
2013-02-23 18:47:00,27.7,22.0,29.93,WNW,284,3.0,11.0,79,0.00,,---,0.00,VWS V14.01,2013-02-23 23:47:00,
2013-02-23 18:52:00,27.5,22.5,29.93,West,264,6.0,11.0,81,0.00,,---,0.00,VWS V14.01,2013-02-23 23:52:00,
2013-02-23 18:57:00,27.2,22.7,29.93,West,276,2.0,11.0,83,0.00,,---,0.00,VWS V14.01,2013-02-23 23:57:00,
2013-02-23 19:02:00,27.0,22.8,29.93,WNW,294,3.0,3.0,84,0.00,,---,0.00,VWS V14.01,2013-02-24 00:02:00,
2013-02-23 19:07:00,26.9,23.0,29.93,WNW,288,4.0,6.0,85,0.00,,---,0.00,VWS V14.01,2013-02-24 00:07:00,
2013-02-23 19:12:00,26.8,23.5,29.93,WNW,296,2.0,6.0,87,0.00,,---,0.00,VWS V14.01,2013-02-24 00:12:00,
2013-02-23 19:18:00,26.6,23.5,29.93,WNW,285,1.0,6.0,88,0.00,,---,0.00,VWS V14.01,2013-02-24 00:18:00,
2013-02-23 19:23:00,26.5,23.4,29.93,WNW,284,2.0,6.0,88,0.00,,---,0.00,VWS V14.01,2013-02-24 00:23:00,
2013-02-23 19:28:00,26.4,23.6,29.93,West,273,5.0,6.0,89,0.00,,---,0.00,VWS V14.01,2013-02-24 00:28:00,
2013-02-23 19:33:00,26.3,23.8,29.93,SW,233,5.0,6.0,90,0.00,,---,0.00,VWS V14.01,2013-02-24 00:33:00,
2013-02-23 19:38:00,26.3,23.8,29.93,WSW,245,5.0,8.0,90,0.00,,---,0.00,VWS V14.01,2013-02-24 00:38:00,
2013-02-23 19:43:00,26.2,23.7,29.93,WSW,243,2.0,8.0,90,0.00,,---,0.00,VWS V14.01,2013-02-24 00:43:00,
2013-02-23 19:48:00,26.2,23.7,29.93,WSW,245,4.0,8.0,90,0.00,,---,0.00,VWS V14.01,2013-02-24 00:48:00,
2013-02-23 19:53:00,26.1,23.6,29.93,SW,229,4.0,8.0,90,0.00,,---,0.00,VWS V14.01,2013-02-24 00:53:00,
2013-02-23 19:58:00,26.1,23.6,29.93,WSW,249,2.0,8.0,90,0.00,,---,0.00,VWS V14.01,2013-02-24 00:58:00,
2013-02-23 20:04:00,26.0,23.2,29.93,SW,233,8.0,9.0,89,0.00,,---,0.00,VWS V14.01,2013-02-24 01:04:00,
2013-02-23 20:09:00,25.9,22.8,29.93,West,263,5.0,9.0,88,0.00,,---,0.00,VWS V14.01,2013-02-24 01:09:00,
2013-02-23 20:14:00,25.9,22.8,29.93,WSW,258,3.0,9.0,88,0.00,,---,0.00,VWS V14.01,2013-02-24 01:14:00,
2013-02-23 20:19:00,25.9,22.6,29.93,WSW,243,5.0,9.0,87,0.00,,---,0.00,VWS V14.01,2013-02-24 01:19:00,
2013-02-23 20:24:00,25.9,22.6,29.93,West,269,3.0,9.0,87,0.00,,---,0.00,VWS V14.01,2013-02-24 01:24:00,
2013-02-23 20:29:00,25.9,22.6,29.93,SW,229,3.0,9.0,87,0.00,,---,0.00,VWS V14.01,2013-02-24 01:29:00,
2013-02-23 20:34:00,25.8,22.2,29.94,WSW,238,4.0,9.0,86,0.00,,---,0.00,VWS V14.01,2013-02-24 01:34:00,
2013-02-23 20:40:00,25.8,22.5,29.94,WSW,249,4.0,9.0,87,0.00,,---,0.00,VWS V14.01,2013-02-24 01:40:00,
2013-02-23 20:45:00,25.7,22.4,29.94,SW,222,5.0,9.0,87,0.00,,---,0.00,VWS V14.01,2013-02-24 01:45:00,
2013-02-23 20:50:00,25.7,22.4,29.94,WSW,243,1.0,9.0,87,0.00,,---,0.00,VWS V14.01,2013-02-24 01:50:00,
2013-02-23 20:55:00,25.7,22.4,29.93,SW,233,2.0,9.0,87,0.00,,---,0.00,VWS V14.01,2013-02-24 01:55:00,
2013-02-23 21:00:00,25.6,22.5,29.93,SW,227,3.0,9.0,88,0.00,,---,0.00,VWS V14.01,2013-02-24 02:00:00,
2013-02-23 21:05:00,25.6,22.5,29.93,SW,233,4.0,5.0,88,0.00,,---,0.00,VWS V14.01,2013-02-24 02:05:00,
2013-02-23 21:10:00,25.6,22.5,29.93,SW,221,3.0,6.0,88,0.00,,---,0.00,VWS V14.01,2013-02-24 02:10:00,
2013-02-23 21:15:00,25.6,22.8,29.93,SW,224,5.0,6.0,89,0.00,,---,0.00,VWS V14.01,2013-02-24 02:15:00,
2013-02-23 21:21:00,25.6,22.8,29.93,WSW,242,4.0,9.0,89,0.00,,---,0.00,VWS V14.01,2013-02-24 02:21:00,
2013-02-23 21:26:00,25.6,22.5,29.93,WSW,243,6.0,9.0,88,0.00,,---,0.00,VWS V14.01,2013-02-24 02:26:00,
2013-02-23 21:31:00,25.6,22.5,29.93,WSW,240,5.0,9.0,88,0.00,,---,0.00,VWS V14.01,2013-02-24 02:31:00,
2013-02-23 21:36:00,25.6,22.5,29.93,WSW,238,3.0,9.0,88,0.00,,---,0.00,VWS V14.01,2013-02-24 02:36:00,
2013-02-23 21:41:00,25.5,22.5,29.93,WSW,242,2.0,9.0,88,0.00,,---,0.00,VWS V14.01,2013-02-24 02:41:00,
2013-02-23 21:46:00,25.5,22.5,29.93,WSW,246,4.0,9.0,88,0.00,,---,0.00,VWS V14.01,2013-02-24 02:46:00,
2013-02-23 21:51:00,25.5,22.5,29.93,SW,226,6.0,9.0,88,0.00,,---,0.00,VWS V14.01,2013-02-24 02:51:00,
2013-02-23 21:56:00,25.5,22.2,29.93,SW,228,4.0,9.0,87,0.00,,---,0.00,VWS V14.01,2013-02-24 02:56:00,
2013-02-23 22:02:00,25.4,22.1,29.93,West,266,5.0,6.0,87,0.00,,---,0.00,VWS V14.01,2013-02-24 03:02:00,
2013-02-23 22:07:00,25.4,22.1,29.92,WSW,243,6.0,7.0,87,0.00,,---,0.00,VWS V14.01,2013-02-24 03:07:00,
2013-02-23 22:12:00,25.4,21.8,29.92,WSW,239,8.0,10.0,86,0.00,,---,0.00,VWS V14.01,2013-02-24 03:12:00,
2013-02-23 22:17:00,25.4,21.8,29.92,SW,231,6.0,10.0,86,0.00,,---,0.00,VWS V14.01,2013-02-24 03:17:00,
2013-02-23 22:22:00,25.3,21.7,29.92,WSW,238,5.0,10.0,86,0.00,,---,0.00,VWS V14.01,2013-02-24 03:22:00,
2013-02-23 22:27:00,25.2,21.6,29.92,WSW,250,4.0,10.0,86,0.00,,---,0.00,VWS V14.01,2013-02-24 03:27:00,
2013-02-23 22:32:00,25.2,21.6,29.92,SW,229,4.0,10.0,86,0.00,,---,0.00,VWS V14.01,2013-02-24 03:32:00,
2013-02-23 22:37:00,25.1,21.5,29.92,SW,235,3.0,10.0,86,0.00,,---,0.00,VWS V14.01,2013-02-24 03:37:00,
2013-02-23 22:42:00,24.9,21.3,29.92,WSW,247,4.0,10.0,86,0.00,,---,0.00,VWS V14.01,2013-02-24 03:42:00,
2013-02-23 22:48:00,24.8,21.2,29.92,West,260,3.0,10.0,86,0.00,,---,0.00,VWS V14.01,2013-02-24 03:48:00,
2013-02-23 22:53:00,24.7,21.1,29.92,SW,236,4.0,10.0,86,0.00,,---,0.00,VWS V14.01,2013-02-24 03:53:00,
2013-02-23 22:58:00,24.6,21.0,29.92,WSW,250,3.0,10.0,86,0.00,,---,0.00,VWS V14.01,2013-02-24 03:58:00,
2013-02-23 23:03:00,24.5,20.9,29.92,WSW,257,3.0,6.0,86,0.00,,---,0.00,VWS V14.01,2013-02-24 04:03:00,
2013-02-23 23:08:00,24.3,20.7,29.92,WSW,252,2.0,6.0,86,0.00,,---,0.00,VWS V14.01,2013-02-24 04:08:00,
2013-02-23 23:13:00,24.1,20.5,29.92,WSW,249,4.0,6.0,86,0.00,,---,0.00,VWS V14.01,2013-02-24 04:13:00,
2013-02-23 23:18:00,24.0,20.4,29.91,WSW,250,3.0,6.0,86,0.00,,---,0.00,VWS V14.01,2013-02-24 04:18:00,
2013-02-23 23:23:00,23.8,20.2,29.92,WSW,243,3.0,6.0,86,0.00,,---,0.00,VWS V14.01,2013-02-24 04:23:00,
2013-02-23 23:28:00,23.6,20.3,29.92,SW,231,4.0,6.0,87,0.00,,---,0.00,VWS V14.01,2013-02-24 04:28:00,
2013-02-23 23:33:00,23.4,20.1,29.92,SW,235,2.0,6.0,87,0.00,,---,0.00,VWS V14.01,2013-02-24 04:33:00,
2013-02-23 23:39:00,23.2,19.9,29.91,WSW,242,4.0,6.0,87,0.00,,---,0.00,VWS V14.01,2013-02-24 04:39:00,
2013-02-23 23:44:00,23.1,19.8,29.91,SW,225,2.0,6.0,87,0.00,,---,0.00,VWS V14.01,2013-02-24 04:44:00,
2013-02-23 23:49:00,22.9,19.6,29.91,SW,233,4.0,6.0,87,0.00,,---,0.00,VWS V14.01,2013-02-24 04:49:00,
2013-02-23 23:54:00,22.8,19.8,29.91,WSW,246,2.0,6.0,88,0.00,,---,0.00,VWS V14.01,2013-02-24 04:54:00,
2013-02-23 23:59:00,22.6,19.6,29.91,WSW,240,1.0,6.0,88,0.00,,---,0.00,VWS V14.01,2013-02-24 04:59:00,